Roxboro, NC

12:27 PM EDT on June 25, 2018 (GMT -0400)
Person County

Weather History for KTDF - February, 2009

Change the Weather History Date:

Thursday, February 12, 2009

  Actual Average Record
Temperature  
Mean Temperature 58 °F -  
Max Temperature 64 °F 51 °F 78 °F (2017)
Min Temperature 51 °F 27 °F 10 °F (1968)
Degree Days  
Heating Degree Days 8    
Growing Degree Days 8 (Base 50)    
Moisture  
Dew Point 32 °F    
Average Humidity 39    
Maximum Humidity 77    
Minimum Humidity 18    
Precipitation  
Precipitation 0.00 in - - ()
Sea Level Pressure  
Sea Level Pressure 29.89 in    
Wind  
Wind Speed 12 mph (West)    
Max Wind Speed 20 mph    
Max Gust Speed 34 mph    
Visibility 10 miles    
Events      
Averages and records for this station are not official NWS values.
T = Trace of Precipitation, MM = Missing Value Source: NWS Daily Summary

Daily Weather History Graph

Daily Weather History Graph

Search for Another Location

Airport or City:

Astronomy

Feb. 12, 2009 Rise Set
Actual Time 7:06 AM EST 5:54 PM EST
Civil Twilight 6:40 AM EST 6:20 PM EST
Nautical Twilight 6:09 AM EST 6:50 PM EST
Astronomical Twilight 5:39 AM EST 7:20 PM EST
Moon 9:38 PM EST (2/12) 8:33 AM EST (2/12)
Length of Visible Light 11h 40m
Length of Day
10h 47m
Waning Gibbous, 88% of the Moon is Illuminated
Feb 12
Waning Gibbous
Feb 16
Last Quarter
Feb 24
New
Mar 4
First Quarter
Mar 10
Full

Hourly Weather History & Observations

Time (EST) Temp. Dew Point Humidity Pressure Visibility Wind Dir Wind Speed Gust Speed Precip Events Conditions
12:01 AM 62.6 °F 55.4 °F 77% 29.75 in 10.0 mi WSW 15.0 mph 23.0 mph N/A   Scattered Clouds
12:21 AM 62.6 °F 55.4 °F 77% 29.76 in 10.0 mi WSW 11.5 mph 20.7 mph N/A   Clear
12:41 AM 62.6 °F 51.8 °F 68% 29.77 in 10.0 mi WSW 13.8 mph 26.5 mph N/A   Clear
1:01 AM 60.8 °F 48.2 °F 63% 29.77 in 10.0 mi WSW 12.7 mph 25.3 mph N/A   Clear
1:21 AM 60.8 °F 46.4 °F 59% 29.78 in 10.0 mi WSW 12.7 mph 20.7 mph N/A   Clear
1:41 AM 60.8 °F 44.6 °F 55% 29.79 in 10.0 mi WSW 16.1 mph 23.0 mph N/A   Clear
2:01 AM 60.8 °F 42.8 °F 52% 29.80 in 10.0 mi WSW 12.7 mph 21.9 mph N/A   Clear
2:21 AM 59.0 °F 41.0 °F 51% 29.80 in 10.0 mi WSW 11.5 mph 21.9 mph N/A   Clear
2:41 AM 57.2 °F 39.2 °F 51% 29.81 in 10.0 mi West 9.2 mph 17.3 mph N/A   Clear
3:01 AM 57.2 °F 37.4 °F 48% 29.82 in 10.0 mi West 11.5 mph 20.7 mph N/A   Clear
3:21 AM 57.2 °F 37.4 °F 48% 29.82 in 10.0 mi WSW 6.9 mph 17.3 mph N/A   Clear
3:41 AM 55.4 °F 37.4 °F 51% 29.82 in 10.0 mi West 10.4 mph 18.4 mph N/A   Clear
4:01 AM 55.4 °F 37.4 °F 51% 29.82 in 10.0 mi WSW 10.4 mph 16.1 mph N/A   Clear
4:21 AM 55.4 °F 37.4 °F 51% 29.83 in 10.0 mi West 8.1 mph - N/A   Clear
4:41 AM 55.4 °F 35.6 °F 47% 29.83 in 10.0 mi WSW 8.1 mph - N/A   Clear
5:01 AM 55.4 °F 35.6 °F 47% 29.83 in 10.0 mi WSW 9.2 mph 17.3 mph N/A   Clear
5:21 AM 55.4 °F 35.6 °F 47% 29.83 in 10.0 mi WSW 9.2 mph 16.1 mph N/A   Clear
5:41 AM 53.6 °F 35.6 °F 51% 29.84 in 10.0 mi WSW 10.4 mph - N/A   Clear
6:01 AM 53.6 °F 35.6 °F 51% 29.85 in 10.0 mi WSW 9.2 mph - N/A   Clear
6:21 AM 53.6 °F 35.6 °F 51% 29.86 in 10.0 mi WSW 9.2 mph - N/A   Clear
6:41 AM 53.6 °F 37.4 °F 54% 29.86 in 10.0 mi SW 10.4 mph 17.3 mph N/A   Clear
7:01 AM 53.6 °F 35.6 °F 51% 29.87 in 10.0 mi WSW 5.8 mph - N/A   Clear
7:21 AM 51.8 °F 35.6 °F 54% 29.88 in 10.0 mi WSW 6.9 mph - N/A   Clear
7:41 AM 53.6 °F 37.4 °F 54% 29.89 in 10.0 mi WSW 6.9 mph - N/A   Clear
8:01 AM 53.6 °F 37.4 °F 54% 29.89 in 10.0 mi WSW 6.9 mph - N/A   Unknown
8:21 AM 53.6 °F 37.4 °F 54% 29.90 in 10.0 mi WSW 9.2 mph - N/A   Unknown
8:41 AM 55.4 °F 37.4 °F 51% 29.91 in 10.0 mi WSW 11.5 mph 18.4 mph N/A   Unknown
9:01 AM 57.2 °F 37.4 °F 48% 29.91 in 10.0 mi West 15.0 mph 23.0 mph N/A   Unknown
9:21 AM 57.2 °F 37.4 °F 48% 29.91 in 10.0 mi West 13.8 mph 29.9 mph N/A   Unknown
9:42 AM 59.0 °F 37.4 °F 45% 29.91 in 10.0 mi West 11.5 mph 25.3 mph N/A   Unknown
10:01 AM 59.0 °F 35.6 °F 42% 29.91 in 10.0 mi West 17.3 mph 28.8 mph N/A   Unknown
10:21 AM 60.8 °F 33.8 °F 36% 29.92 in 10.0 mi West 18.4 mph 27.6 mph N/A   Unknown
10:42 AM 60.8 °F 33.8 °F 36% 29.91 in 10.0 mi West 19.6 mph 27.6 mph N/A   Unknown
11:01 AM 60.8 °F 32.0 °F 34% 29.92 in 10.0 mi West 16.1 mph 27.6 mph N/A   Unknown
11:21 AM 60.8 °F 30.2 °F 31% 29.93 in 10.0 mi WNW 16.1 mph 32.2 mph N/A   Unknown
11:41 AM 62.6 °F 30.2 °F 30% 29.93 in 10.0 mi NW 16.1 mph 25.3 mph N/A   Unknown
12:01 PM 62.6 °F 28.4 °F 27% 29.93 in 10.0 mi WNW 19.6 mph 27.6 mph N/A   Unknown
12:21 PM 64.4 °F 28.4 °F 26% 29.93 in 10.0 mi West 17.3 mph 24.2 mph N/A   Unknown
12:42 PM 64.4 °F 26.6 °F 24% 29.92 in 10.0 mi West 19.6 mph 27.6 mph N/A   Unknown
1:02 PM 64.4 °F 26.6 °F 24% 29.92 in 10.0 mi WNW 18.4 mph 27.6 mph N/A   Unknown
1:21 PM 64.4 °F 23.0 °F 21% 29.92 in 10.0 mi West 13.8 mph 28.8 mph N/A   Unknown
1:41 PM 64.4 °F 23.0 °F 21% 29.92 in 10.0 mi West 17.3 mph 25.3 mph N/A   Unknown
2:01 PM 64.4 °F 24.8 °F 22% 29.93 in 10.0 mi WNW 16.1 mph 34.5 mph N/A   Unknown
2:21 PM 64.4 °F 23.0 °F 21% 29.93 in 10.0 mi West 18.4 mph 27.6 mph N/A   Unknown
2:41 PM 64.4 °F 21.2 °F 19% 29.93 in 10.0 mi West 17.3 mph 27.6 mph N/A   Unknown
3:01 PM 64.4 °F 21.2 °F 19% 29.93 in 10.0 mi WNW 12.7 mph 27.6 mph N/A   Unknown
3:21 PM 64.4 °F 19.4 °F 18% 29.94 in 10.0 mi West 13.8 mph 28.8 mph N/A   Unknown
3:41 PM 64.4 °F 19.4 °F 18% 29.93 in 10.0 mi WNW 16.1 mph 26.5 mph N/A   Unknown
4:02 PM 62.6 °F 19.4 °F 19% 29.93 in 10.0 mi WNW 18.4 mph 25.3 mph N/A   Unknown
4:21 PM 62.6 °F 19.4 °F 19% 29.93 in 10.0 mi WNW 11.5 mph 25.3 mph N/A   Unknown
4:41 PM 62.6 °F 19.4 °F 19% 29.94 in 10.0 mi WNW 18.4 mph 27.6 mph N/A   Unknown
5:01 PM 62.6 °F 19.4 °F 19% 29.94 in 10.0 mi West 12.7 mph 21.9 mph N/A   Unknown
5:21 PM 60.8 °F 19.4 °F 20% 29.95 in 10.0 mi West 4.6 mph 18.4 mph N/A   Unknown
5:41 PM 60.8 °F 19.4 °F 20% 29.96 in 10.0 mi West 9.2 mph 23.0 mph N/A   Unknown
6:01 PM 59.0 °F 19.4 °F 22% 29.96 in 10.0 mi West 9.2 mph 20.7 mph N/A   Unknown
6:21 PM 57.2 °F 19.4 °F 23% 29.97 in 10.0 mi West 6.9 mph 19.6 mph N/A   Unknown
6:42 PM 57.2 °F 19.4 °F 23% 29.98 in 10.0 mi West 8.1 mph 17.3 mph N/A   Unknown
7:01 PM 55.4 °F 19.4 °F 25% 29.98 in 10.0 mi West 5.8 mph - N/A   Unknown
7:21 PM 55.4 °F 21.2 °F 26% 29.98 in 10.0 mi West 10.4 mph - N/A   Unknown
7:41 PM 55.4 °F 21.2 °F 26% 29.99 in 10.0 mi West 10.4 mph - N/A   Unknown
8:01 PM 55.4 °F 21.2 °F 26% 29.99 in 10.0 mi West 4.6 mph - N/A   Unknown
8:22 PM 53.6 °F 21.2 °F 28% 30.00 in 10.0 mi West 6.9 mph - N/A   Unknown
8:42 PM 53.6 °F 21.2 °F 28% 30.00 in 10.0 mi WNW 8.1 mph - N/A   Unknown
9:01 PM 53.6 °F 21.2 °F 28% 30.01 in 10.0 mi West 8.1 mph - N/A   Unknown
9:21 PM 53.6 °F 21.2 °F 28% 30.01 in 10.0 mi West 5.8 mph - N/A   Unknown
9:41 PM 53.6 °F 21.2 °F 28% 30.02 in 10.0 mi West 6.9 mph - N/A   Unknown
10:01 PM 51.8 °F 21.2 °F 30% 30.03 in 10.0 mi West 5.8 mph - N/A   Unknown
10:21 PM 51.8 °F 21.2 °F 30% 30.02 in 10.0 mi West 5.8 mph - N/A   Unknown
10:41 PM 51.8 °F 21.2 °F 30% 30.02 in 10.0 mi WSW 3.5 mph - N/A   Unknown
11:01 PM 50.0 °F 21.2 °F 32% 30.03 in 10.0 mi West 4.6 mph - N/A   Unknown
11:21 PM 50.0 °F 21.2 °F 32% 30.02 in 10.0 mi West 6.9 mph - N/A   Unknown
11:41 PM 50.0 °F 21.2 °F 32% 30.03 in 10.0 mi West 6.9 mph - N/A   Unknown